TimeEDT,TemperatureF,Dew PointF,Humidity,Sea Level PressureIn,VisibilityMPH,Wind Direction,Wind SpeedMPH,Gust SpeedMPH,PrecipitationIn,Events,Conditions,WindDirDegrees,DateUTC
12:51 AM,61.0,34.0,36,29.87,10.0,SSE,12.7,-,N/A,,Overcast,160,2013-03-11 04:51:00
1:51 AM,61.0,35.1,38,29.86,10.0,South,17.3,27.6,N/A,,Overcast,170,2013-03-11 05:51:00
2:51 AM,60.1,36.0,41,29.87,10.0,South,16.1,25.3,0.00,Rain,Light Rain,180,2013-03-11 06:51:00
3:39 AM,57.0,39.9,53,29.85,10.0,South,17.3,25.3,0.00,Rain,Light Rain,180,2013-03-11 07:39:00
3:51 AM,55.9,39.9,55,29.83,10.0,SSE,12.7,-,0.00,Rain,Light Rain,150,2013-03-11 07:51:00
4:51 AM,55.0,39.9,57,29.84,10.0,South,8.1,-,0.00,Rain,Light Rain,180,2013-03-11 08:51:00
5:51 AM,55.9,39.0,53,29.83,10.0,South,12.7,-,0.01,Rain,Light Rain,180,2013-03-11 09:51:00
6:51 AM,51.1,44.1,77,29.86,8.0,South,17.3,24.2,0.10,Rain,Light Rain,180,2013-03-11 10:51:00
7:51 AM,51.1,46.0,83,29.86,7.0,South,18.4,29.9,0.10,Rain,Rain,190,2013-03-11 11:51:00
8:51 AM,51.1,46.9,86,29.87,10.0,South,15.0,-,0.13,Rain,Light Rain,180,2013-03-11 12:51:00
9:51 AM,50.0,45.0,83,29.83,10.0,SE,4.6,-,0.01,,Overcast,130,2013-03-11 13:51:00
10:51 AM,50.0,44.1,80,29.83,10.0,SSE,6.9,-,0.01,Rain,Light Rain,160,2013-03-11 14:51:00
11:51 AM,51.1,43.0,74,29.78,10.0,South,17.3,-,0.04,Rain,Light Rain,170,2013-03-11 15:51:00
12:51 PM,53.1,43.0,69,29.74,10.0,SSE,15.0,21.9,0.01,,Overcast,160,2013-03-11 16:51:00
1:51 PM,52.0,45.0,77,29.71,6.0,South,19.6,31.1,0.02,Rain,Rain,170,2013-03-11 17:51:00
2:51 PM,53.1,45.0,74,29.66,10.0,South,15.0,-,0.02,Rain,Light Rain,170,2013-03-11 18:51:00
3:51 PM,54.0,46.9,77,29.61,10.0,South,19.6,31.1,0.00,Rain,Light Rain,170,2013-03-11 19:51:00
4:51 PM,55.9,46.9,72,29.58,10.0,South,18.4,31.1,0.00,Rain,Light Rain,180,2013-03-11 20:51:00
5:51 PM,55.0,48.0,77,29.56,10.0,South,20.7,34.5,0.00,Rain,Light Rain,180,2013-03-11 21:51:00
6:18 PM,54.0,48.0,80,29.62,1.8,WSW,28.8,35.7,0.01,Rain,Heavy Rain,240,2013-03-11 22:18:00
6:23 PM,51.1,46.9,86,29.62,3.0,SW,23.0,35.7,0.07,Rain,Rain,230,2013-03-11 22:23:00
6:31 PM,50.0,48.0,93,29.62,3.0,WSW,17.3,28.8,0.18,Rain,Rain,240,2013-03-11 22:31:00
6:41 PM,50.0,46.9,89,29.63,4.0,WSW,15.0,-,0.21,Rain,Rain,240,2013-03-11 22:41:00
6:51 PM,48.9,48.0,97,29.64,2.5,SW,12.7,-,0.26,Rain,Rain,230,2013-03-11 22:51:00
6:54 PM,48.9,46.9,93,29.64,3.0,SW,11.5,-,0.01,Rain,Rain,230,2013-03-11 22:54:00
7:28 PM,48.9,46.9,93,29.64,5.0,SSW,9.2,-,0.09,Rain,Rain,210,2013-03-11 23:28:00
7:44 PM,48.0,46.9,96,29.66,6.0,SSW,6.9,-,0.11,Rain,Light Rain,210,2013-03-11 23:44:00
7:51 PM,48.0,46.9,96,29.67,7.0,SSW,5.8,-,0.12,Rain,Light Rain,210,2013-03-11 23:51:00
8:20 PM,48.0,46.0,93,29.67,7.0,SW,11.5,-,0.08,Rain,Light Rain,230,2013-03-12 00:20:00
8:23 PM,48.0,46.0,93,29.67,7.0,SW,8.1,-,0.08,Rain,Light Rain,220,2013-03-12 00:23:00
8:51 PM,46.4,41.0,81,29.69,10.0,WSW,21.9,29.9,N/A,,Overcast,250,2013-03-12 00:51:00
8:55 PM,46.0,39.9,79,29.70,10.0,WSW,27.6,34.5,N/A,,Overcast,240,2013-03-12 00:55:00
9:51 PM,45.0,39.0,80,29.73,10.0,West,19.6,28.8,N/A,,Overcast,260,2013-03-12 01:51:00
10:51 PM,43.0,36.0,76,29.76,10.0,WSW,18.4,-,N/A,,Overcast,240,2013-03-12 02:51:00
11:51 PM,41.0,34.0,76,29.78,10.0,WSW,17.3,26.5,N/A,,Overcast,250,2013-03-12 03:51:00